Fort Polk, LA

6:29 PM CDT on March 29, 2017 (GMT -0500)
Fort Polk

Weather History for KBKB - October, 2012

Change the Weather History Date:

Tuesday, October 23, 2012

  Actual Average (KPOE) Record (KPOE)
Temperature  
Mean Temperature 72 °F -  
Max Temperature 84 °F 74 °F 89 °F (2003)
Min Temperature 60 °F 55 °F 39 °F (1996)
Cooling Degree Days 7    
Growing Degree Days 22 (Base 50)    
Moisture  
Dew Point 63 °F    
Average Humidity 81    
Maximum Humidity 96    
Minimum Humidity 47    
Precipitation  
Precipitation 0.01 in - - ()
Sea Level Pressure  
Sea Level Pressure 30.06 in    
Wind  
Wind Speed 1 mph (SE)    
Max Wind Speed 6 mph    
Max Gust Speed -    
Visibility 7 miles    
Events Fog    
Averages and records for this station are not official NWS values.
T = Trace of Precipitation, MM = Missing Value Source: NWS Daily Summary

Daily Weather History Graph

Daily Weather History Graph

Search for Another Location

Airport or City:

Trip Planner

Search our weather history database for the weather conditions in past years. The results will help you decide how hot, cold, wet, or windy it might be!

Date:

Astronomy

Oct. 23, 2012 Rise Set
Actual Time 7:20 AM CDT 6:30 PM CDT
Civil Twilight 6:55 AM CDT 6:55 PM CDT
Nautical Twilight 6:27 AM CDT 7:23 PM CDT
Astronomical Twilight 5:59 AM CDT 7:51 PM CDT
Moon 2:54 PM CDT (10/23) 1:35 AM CDT (10/23)
Length of Visible Light 11h 59m
Length of Day
11h 10m
Waxing Gibbous, 67% of the Moon is Illuminated
Oct 23
Waxing Gibbous
Oct 29
Full
Nov 6
Last Quarter
Nov 13
New
Nov 20
First Quarter

Hourly Weather History & Observations

Time (CDT) Temp. Heat Index Dew Point Humidity Pressure Visibility Wind Dir Wind Speed Gust Speed Precip Events Conditions
12:54 AM 64.9 °F - 62.1 °F 90% 30.09 in 10.0 mi Calm Calm - N/A   Clear
1:54 AM 66.9 °F - 64.0 °F 90% 30.08 in 10.0 mi Variable 3.5 mph - N/A   Clear
2:54 AM 66.9 °F - 64.0 °F 90% 30.07 in 10.0 mi Calm Calm - N/A   Clear
3:11 AM 66.2 °F - 64.4 °F 94% 29.99 in 10.0 mi Calm Calm - N/A   Partly Cloudy
3:54 AM 66.0 °F - 63.0 °F 90% 30.07 in 10.0 mi Calm Calm - N/A   Clear
4:54 AM 64.9 °F - 62.1 °F 90% 30.07 in 10.0 mi Variable 3.5 mph - N/A   Clear
5:54 AM 64.0 °F - 62.1 °F 93% 30.09 in 7.0 mi Calm Calm - N/A   Clear
6:13 AM 62.6 °F - 60.8 °F 94% 30.02 in 1.8 mi Calm Calm - 0.01 in   Clear
6:34 AM 62.6 °F - 60.8 °F 94% 30.02 in 1.0 mi Calm Calm - 0.01 in   Mist
6:54 AM 61.0 °F - 59.0 °F 93% 30.11 in 0.8 mi Calm Calm - 0.01 in   Mist
6:59 AM 60.8 °F - 59.0 °F 94% 30.03 in 1.2 mi Calm Calm - N/A   Partly Cloudy
7:05 AM 60.8 °F - 59.0 °F 94% 30.03 in 0.8 mi Calm Calm - N/A   Mist
7:11 AM 60.8 °F - 59.0 °F 94% 30.03 in 1.0 mi Calm Calm - N/A   Mist
7:28 AM 60.8 °F - 59.0 °F 94% 30.03 in 1.8 mi Calm Calm - N/A   Overcast
7:54 AM 62.1 °F - 61.0 °F 96% 30.12 in 0.2 mi Calm Calm - N/A Fog Fog
8:54 AM 66.0 °F - 64.0 °F 93% 30.13 in 1.2 mi Calm Calm - N/A   Overcast
9:02 AM 66.2 °F - 64.4 °F 94% 30.04 in 3.0 mi East 3.5 mph - N/A   Overcast
9:54 AM 69.1 °F - 64.9 °F 87% 30.13 in 10.0 mi Variable 4.6 mph - N/A   Clear
10:54 AM 77.0 °F - 66.0 °F 69% 30.12 in 10.0 mi Variable 5.8 mph - N/A   Clear
11:54 AM 80.1 °F 82.1 °F 66.0 °F 62% 30.11 in 10.0 mi Calm Calm - N/A   Scattered Clouds
12:54 PM 82.0 °F 83.1 °F 63.0 °F 52% 30.09 in 10.0 mi Variable 3.5 mph - N/A   Scattered Clouds
1:54 PM 84.0 °F 84.9 °F 63.0 °F 49% 30.06 in 10.0 mi Variable 3.5 mph - N/A   Partly Cloudy
2:54 PM 82.0 °F 83.4 °F 64.0 °F 54% 30.04 in 10.0 mi Calm Calm - N/A   Mostly Cloudy
3:54 PM 84.9 °F 86.1 °F 64.0 °F 49% 30.03 in 10.0 mi Variable 3.5 mph - N/A   Partly Cloudy
4:54 PM 84.0 °F 84.5 °F 62.1 °F 47% 30.02 in 10.0 mi SSE 5.8 mph - N/A   Mostly Cloudy
5:54 PM 80.1 °F 81.7 °F 64.0 °F 58% 30.03 in 10.0 mi Calm Calm - N/A   Clear
6:54 PM 73.9 °F - 64.0 °F 71% 30.04 in 10.0 mi Calm Calm - N/A   Clear
7:54 PM 72.0 °F - 64.0 °F 76% 30.06 in 10.0 mi Calm Calm - N/A   Clear
8:54 PM 71.1 °F - 64.0 °F 78% 30.07 in 10.0 mi Calm Calm - N/A   Mostly Cloudy
9:54 PM 70.0 °F - 64.0 °F 81% 30.08 in 10.0 mi Calm Calm - N/A   Partly Cloudy
10:54 PM 68.0 °F - 64.0 °F 87% 30.08 in 10.0 mi Calm Calm - N/A   Clear
11:54 PM 66.9 °F - 64.0 °F 90% 30.07 in 10.0 mi Calm Calm - N/A   Clear